Ely, MN

12:11 PM CST on December 16, 2017 (GMT -0600)
Ely Municipal

Weather History for KELO - September, 2012

Change the Weather History Date:

Tuesday, September 4, 2012

  Actual Average Record
Temperature  
Mean Temperature 66 °F -  
Max Temperature 84 °F 70 °F 84 °F (2012)
Min Temperature 48 °F 49 °F 33 °F (2000)
Cooling Degree Days 1    
Growing Degree Days 16 (Base 50)    
Moisture  
Dew Point 51 °F    
Average Humidity 71    
Maximum Humidity 100    
Minimum Humidity 23    
Precipitation  
Precipitation 0.16 in - - ()
Sea Level Pressure  
Sea Level Pressure 29.82 in    
Wind  
Wind Speed 2 mph (SSE)    
Max Wind Speed 39 mph    
Max Gust Speed 52 mph    
Visibility 9 miles    
Events Rain , Thunderstorm    
Averages and records for this station are not official NWS values.
T = Trace of Precipitation, MM = Missing Value Source: NWS Daily Summary

Daily Weather History Graph

Daily Weather History Graph

Search for Another Location

Airport or City:

Trip Planner

Search our weather history database for the weather conditions in past years. The results will help you decide how hot, cold, wet, or windy it might be!

Date:

Astronomy

Sep. 04, 2012 Rise Set
Actual Time 6:30 AM CDT 7:41 PM CDT
Civil Twilight 5:58 AM CDT 8:12 PM CDT
Nautical Twilight 5:20 AM CDT 8:50 PM CDT
Astronomical Twilight 4:39 AM CDT 9:31 PM CDT
Moon 9:09 PM CDT (9/4) 11:01 AM CDT (9/4)
Length of Visible Light 14h 14m
Length of Day
13h 10m
Waning Gibbous, 83% of the Moon is Illuminated
Sep 4
Waning Gibbous
Sep 8
Last Quarter
Sep 15
New
Sep 22
First Quarter
Sep 29
Full

Hourly Weather History & Observations

Time (CDT) Temp. Heat Index Dew Point Humidity Pressure Visibility Wind Dir Wind Speed Gust Speed Precip Events Conditions
12:13 AM 55.4 °F - 50.0 °F 82% 29.89 in 10.0 mi Calm Calm - N/A   Clear
12:33 AM 55.4 °F - 50.0 °F 82% 29.89 in 10.0 mi ESE 3.5 mph - N/A   Clear
12:52 AM 55.4 °F - 50.0 °F 82% 29.89 in 10.0 mi Calm Calm - N/A   Clear
1:13 AM 57.2 °F - 50.0 °F 77% 29.90 in 10.0 mi Calm Calm - N/A   Clear
1:33 AM 55.4 °F - 51.8 °F 88% 29.90 in 10.0 mi Calm Calm - N/A   Scattered Clouds
1:52 AM 53.6 °F - 51.8 °F 94% 29.90 in 10.0 mi Calm Calm - N/A   Scattered Clouds
2:13 AM 53.6 °F - 48.2 °F 82% 29.90 in 10.0 mi Calm Calm - N/A   Clear
2:33 AM 51.8 °F - 48.2 °F 88% 29.90 in 10.0 mi Calm Calm - N/A   Clear
2:52 AM 53.6 °F - 48.2 °F 82% 29.90 in 10.0 mi Calm Calm - N/A   Clear
3:13 AM 51.8 °F - 48.2 °F 88% 29.89 in 10.0 mi Calm Calm - N/A   Clear
3:32 AM 51.8 °F - 48.2 °F 88% 29.89 in 10.0 mi Calm Calm - N/A   Clear
3:52 AM 51.8 °F - 48.2 °F 88% 29.89 in 10.0 mi Calm Calm - N/A   Clear
4:13 AM 50.0 °F - 46.4 °F 87% 29.90 in 10.0 mi Calm Calm - N/A   Scattered Clouds
4:32 AM 51.8 °F - 48.2 °F 88% 29.90 in 10.0 mi Calm Calm - N/A   Mostly Cloudy
4:53 AM 51.8 °F - 48.2 °F 88% 29.91 in 10.0 mi Calm Calm - N/A   Mostly Cloudy
5:13 AM 50.0 °F - 48.2 °F 94% 29.90 in 10.0 mi Calm Calm - N/A   Scattered Clouds
5:32 AM 50.0 °F - 46.4 °F 87% 29.91 in 10.0 mi Calm Calm - N/A   Clear
5:53 AM 50.0 °F - 46.4 °F 87% 29.91 in 10.0 mi Calm Calm - N/A   Clear
6:13 AM 48.2 °F - 46.4 °F 93% 29.90 in 10.0 mi Calm Calm - N/A   Clear
6:32 AM 48.2 °F - 46.4 °F 93% 29.90 in 10.0 mi Calm Calm - N/A   Clear
6:53 AM 48.2 °F - 46.4 °F 93% 29.90 in 10.0 mi Calm Calm - N/A   Clear
7:13 AM 48.2 °F - 46.4 °F 93% 29.90 in 10.0 mi Calm Calm - N/A   Clear
7:32 AM 51.8 °F - 48.2 °F 88% 29.89 in 10.0 mi Calm Calm - N/A   Clear
7:53 AM 57.2 °F - 51.8 °F 82% 29.88 in 10.0 mi ESE 5.8 mph - N/A   Clear
8:13 AM 60.8 °F - 53.6 °F 77% 29.88 in 10.0 mi Calm Calm - N/A   Clear
8:32 AM 62.6 °F - 53.6 °F 72% 29.88 in 10.0 mi Calm Calm - N/A   Clear
8:53 AM 66.2 °F - 51.8 °F 60% 29.87 in 10.0 mi Calm Calm - N/A   Clear
9:13 AM 71.6 °F - 51.8 °F 50% 29.87 in 10.0 mi SE 3.5 mph - N/A   Clear
9:32 AM 71.6 °F - 48.2 °F 43% 29.87 in 10.0 mi Calm Calm - N/A   Clear
9:53 AM 71.6 °F - 50.0 °F 46% 29.87 in 10.0 mi Calm Calm - N/A   Clear
10:13 AM 75.2 °F - 48.2 °F 38% 29.86 in 10.0 mi East 5.8 mph - N/A   Clear
10:32 AM 78.8 °F - 46.4 °F 32% 29.86 in 10.0 mi SE 5.8 mph - N/A   Clear
10:53 AM 78.8 °F - 44.6 °F 30% 29.85 in 10.0 mi SSE 8.1 mph - N/A   Scattered Clouds
11:13 AM 80.6 °F - 46.4 °F 30% 29.85 in 10.0 mi South 9.2 mph - N/A   Mostly Cloudy
11:32 AM 80.6 °F - 44.6 °F 28% 29.84 in 10.0 mi SSE 5.8 mph - N/A   Scattered Clouds
11:53 AM 80.6 °F - 44.6 °F 28% 29.83 in 10.0 mi SE 6.9 mph - N/A   Scattered Clouds
12:13 PM 82.4 °F - 44.6 °F 26% 29.82 in 10.0 mi SSW 8.1 mph - N/A   Scattered Clouds
12:32 PM 82.4 °F - 42.8 °F 25% 29.81 in 10.0 mi SSE 8.1 mph - N/A   Clear
12:53 PM 84.2 °F - 42.8 °F 23% 29.80 in 10.0 mi SSE 11.5 mph - N/A   Scattered Clouds
1:13 PM 84.2 °F - 44.6 °F 25% 29.80 in 10.0 mi SSW 9.2 mph - N/A   Scattered Clouds
1:32 PM 84.2 °F - 46.4 °F 27% 29.79 in 10.0 mi SSW 11.5 mph 18.4 mph N/A   Scattered Clouds
1:53 PM 84.2 °F - 44.6 °F 25% 29.78 in 10.0 mi SSW 9.2 mph - N/A   Scattered Clouds
2:13 PM 84.2 °F - 44.6 °F 25% 29.77 in 10.0 mi SSW 11.5 mph 16.1 mph N/A   Scattered Clouds
2:32 PM 82.4 °F - 44.6 °F 26% 29.76 in 10.0 mi South 6.9 mph 16.1 mph N/A   Clear
2:53 PM 84.2 °F - 42.8 °F 23% 29.75 in 10.0 mi South 6.9 mph 18.4 mph N/A   Clear
3:13 PM 84.2 °F - 44.6 °F 25% 29.74 in 10.0 mi South 5.8 mph - N/A   Clear
3:32 PM 82.4 °F - 46.4 °F 28% 29.73 in 10.0 mi SSE 9.2 mph 18.4 mph N/A   Scattered Clouds
3:53 PM 84.2 °F - 48.2 °F 29% 29.72 in 10.0 mi SSE 10.4 mph 16.1 mph N/A   Clear
4:13 PM 82.4 °F - 50.0 °F 32% 29.71 in 10.0 mi SSE 4.6 mph - N/A   Clear
4:32 PM 80.6 °F 80.3 °F 53.6 °F 39% 29.68 in 10.0 mi South 4.6 mph - N/A   Scattered Clouds
4:50 PM 62.6 °F - 57.2 °F 82% 29.74 in 1.8 mi WNW 39.1 mph 51.8 mph N/A Rain , Thunderstorm Heavy Thunderstorms and Rain
5:13 PM 60.8 °F - 57.2 °F 88% 29.78 in 7.0 mi Calm Calm - 0.12 in Rain , Thunderstorm Heavy Thunderstorms and Rain
5:32 PM 60.8 °F - 59.0 °F 94% 29.77 in 10.0 mi SSE 5.8 mph - 0.16 in Rain , Thunderstorm Light Thunderstorms and Rain
5:53 PM 62.6 °F - 60.8 °F 94% 29.75 in 10.0 mi East 5.8 mph - 0.16 in   Overcast
6:13 PM 62.6 °F - 60.8 °F 94% 29.75 in 10.0 mi ESE 3.5 mph - N/A   Overcast
6:32 PM 62.6 °F - 60.8 °F 94% 29.75 in 10.0 mi South 3.5 mph - N/A   Mostly Cloudy
6:53 PM 62.6 °F - 60.8 °F 94% 29.75 in 10.0 mi Calm Calm - N/A   Scattered Clouds
7:13 PM 62.6 °F - 60.8 °F 94% 29.75 in 10.0 mi South 3.5 mph - N/A   Scattered Clouds
7:32 PM 62.6 °F - 60.8 °F 94% 29.75 in 10.0 mi South 3.5 mph - N/A   Clear
7:53 PM 60.8 °F - 59.0 °F 94% 29.75 in 7.0 mi Calm Calm - N/A   Clear
8:12 PM 60.8 °F - 59.0 °F 94% 29.75 in 5.0 mi Calm Calm - N/A   Clear
8:32 PM 59.0 °F - 57.2 °F 94% 29.76 in 5.0 mi Calm Calm - N/A   Clear
8:53 PM 60.8 °F - 59.0 °F 94% 29.76 in 7.0 mi Calm Calm - N/A   Clear
9:12 PM 57.2 °F - 55.4 °F 94% 29.76 in 2.5 mi Calm Calm - N/A   Clear
9:33 PM 57.2 °F - 55.4 °F 94% 29.75 in 3.0 mi Calm Calm - N/A   Scattered Clouds
9:53 PM 55.4 °F - 53.6 °F 94% 29.75 in 2.5 mi Calm Calm - N/A   Mostly Cloudy
10:12 PM 53.6 °F - 53.6 °F 100% 29.74 in 2.0 mi Calm Calm - N/A   Mostly Cloudy
10:33 PM 53.6 °F - 53.6 °F 100% 29.74 in 10.0 mi Calm Calm - N/A   Scattered Clouds
10:53 PM 53.6 °F - 51.8 °F 94% 29.74 in 0.8 mi Calm Calm - N/A   Overcast
11:13 PM 53.6 °F - 53.6 °F 100% 29.74 in 0.8 mi Calm Calm - N/A   Overcast
11:33 PM 51.8 °F - 51.8 °F 100% 29.75 in 1.0 mi SSW 4.6 mph - N/A   Overcast
11:52 PM 55.4 °F - 55.4 °F 100% 29.76 in 4.0 mi SSW 3.5 mph - N/A   Scattered Clouds